Location: Klamath Falls
(42.2250°N, 121.7810°W)
Time: 21:51:30
(UTC-08:00)

ISS - Visible Passes

Search period start: 15 February 2019 00:00
Search period end: 25 February 2019 00:00
Orbit: 403 x 411 km, 51.6° (Epoch: 16 February)

Date Brightness Start Highest point End Pass type
(mag) Time Alt. Az. Time Alt. Az. Time Alt. Az.
20 Feb -0.3 06:13:40 10° SE 06:14:17 10° SE 06:14:55 10° ESE visible
22 Feb -1.6 06:04:45 10° SSW 06:07:30 25° SE 06:10:15 10° ENE visible
23 Feb -0.9 05:14:24 10° SSE 05:16:11 14° SE 05:17:57 10° E visible
24 Feb -3.4 05:57:35 10° SW 06:00:48 63° SE 06:04:02 10° ENE visible
